Weather History for Saginaw, MI

Change the Weather History Date:

Monday, June 9, 2014

  Actual Average Record
Temperature  
Mean Temperature 65 °F 66 °F  
Max Temperature 75 °F 76 °F 90 °F (2005)
Min Temperature 55 °F 55 °F 48 °F (2007)
Degree Days  
Heating Degree Days 0    
Month to date heating degree days 1  
Since 1 June heating degree days 1  
Since 1 July heating degree days 7583  
Cooling Degree Days 0    
Month to date cooling degree days 36  
Year to date cooling degree days 80  
Since 1 June cooling degree days 36  
Growing Degree Days 15 (Base 50)    
Moisture  
Dew Point 52 °F    
Average Humidity 68    
Maximum Humidity 90    
Minimum Humidity 46    
Precipitation  
Precipitation 0.00 in 0.10 in 0.43 in (2011)
Month to date precipitation 0.24 0.88  
Year to date precipitation 11.83 12.53  
Snow  
Snow 0.00 in - - ()
Month to date snowfall 0.0  
Since 1 June snowfall 0.0  
Since 1 July snowfall 60.3  
Snow Depth 0.00 in    
Sea Level Pressure  
Sea Level Pressure 30.02 in    
Wind  
Wind Speed 9 mph (NNE)    
Max Wind Speed 16 mph    
Max Gust Speed 22 mph    
Visibility 10 miles    
Events      
T = Trace of Precipitation, MM = Missing Value Source: NWS Daily Summary

Daily Weather History Graph

Daily Weather History Graph

Search for Another Location

Airport:

Trip Planner

Search our weather history database for the weather conditions in past years. The results will help you decide how hot, cold, wet, or windy it might be!

Date:

Astronomy

Jun. 09, 2014 Rise Set
Actual Time 5:55 AM EDT 9:16 PM EDT
Civil Twilight 5:19 AM EDT 9:51 PM EDT
Nautical Twilight 4:33 AM EDT 10:38 PM EDT
Astronomical Twilight 3:36 AM EDT 11:35 PM EDT
Moon 5:30 PM EDT (6/9) 3:28 AM EDT (6/9)
Length of Visible Light 16h 32m
Length of Day
15h 21m
Waxing Gibbous, 85% of the Moon is Illuminated
Jun 9
Waxing Gibbous
Jun 13
Full
Jun 19
Last Quarter
Jun 27
New
Jul 5
First Quarter

Hourly Weather History & Observations

Time (EDT) Temp. Dew Point Humidity Pressure Visibility Wind Dir Wind Speed Gust Speed Precip Events Conditions
12:53 AM 61.0 °F 57.0 °F 87% 30.03 in 10.0 mi North - - N/A   Clear
1:53 AM 61.0 °F 57.0 °F 87% 30.04 in 10.0 mi NNE 3.5 mph - N/A   Clear
2:53 AM 59.0 °F 55.9 °F 90% 30.04 in 10.0 mi NNW 4.6 mph - N/A   Clear
3:53 AM 57.9 °F 50.0 °F 75% 30.04 in 10.0 mi North 8.1 mph - N/A   Clear
4:53 AM 55.9 °F 46.0 °F 69% 30.04 in 10.0 mi North 5.8 mph - N/A   Clear
5:53 AM 55.0 °F 44.1 °F 67% 30.06 in 10.0 mi North 4.6 mph - N/A   Clear
6:53 AM 57.0 °F 44.1 °F 62% 30.06 in 10.0 mi North 8.1 mph - N/A   Clear
7:53 AM 60.1 °F 46.9 °F 62% 30.05 in 10.0 mi NNE 5.8 mph - N/A   Clear
8:53 AM 64.9 °F 53.1 °F 65% 30.04 in 10.0 mi NNE 11.5 mph - N/A   Clear
9:53 AM 66.9 °F 54.0 °F 63% 30.06 in 10.0 mi NE 12.7 mph - N/A   Clear
10:53 AM 66.2 °F 53.6 °F 64% 30.06 in 10.0 mi NNE 12.7 mph - N/A   Clear
11:53 AM 69.1 °F 55.0 °F 61% 30.05 in 10.0 mi NE 11.5 mph - N/A   Clear
12:53 PM 71.1 °F 55.0 °F 57% 30.04 in 10.0 mi NE 10.4 mph - N/A   Clear
1:53 PM 72.0 °F 55.9 °F 57% 30.02 in 10.0 mi ENE 10.4 mph - N/A   Clear
2:53 PM 73.9 °F 57.0 °F 55% 30.01 in 10.0 mi NE 10.4 mph - N/A   Clear
3:53 PM 75.2 °F 55.4 °F 50% 30.00 in 10.0 mi NE 12.7 mph - N/A   Clear
4:53 PM 73.9 °F 53.1 °F 48% 29.98 in 10.0 mi NE 11.5 mph - N/A   Clear
5:53 PM 73.9 °F 52.0 °F 46% 29.99 in 10.0 mi North 12.7 mph - N/A   Clear
6:53 PM 71.6 °F 51.8 °F 50% 29.98 in 10.0 mi NNE 13.8 mph - N/A   Clear
7:53 PM 70.0 °F 48.0 °F 46% 29.97 in 10.0 mi NE 12.7 mph - N/A   Clear
8:53 PM 66.0 °F 48.9 °F 54% 29.97 in 10.0 mi NE 10.4 mph - N/A   Clear
9:53 PM 64.0 °F 52.0 °F 65% 29.97 in 10.0 mi NE 9.2 mph - N/A   Clear
10:53 PM 63.0 °F 53.1 °F 70% 29.99 in 10.0 mi NE 9.2 mph - N/A   Clear
11:53 PM 63.0 °F 51.1 °F 65% 29.99 in 10.0 mi ENE 6.9 mph - N/A   Clear